1998-067NP

Last updated on Sun May 13 2018 00:15:04 GMT+0000 (Coordinated Universal Time)

1 43466U 98067NP 18132.59631876 .00008305 00000-0 12890-3 0 9992 2 43466 51.6395 196.1280 0000805 3.2231 111.6084 15.54903403 167
UTC large
Height (km)
Speed (km/s)
/
Latitude / Longitude
Inclination (degrees)
Orbital Period (minutes)
Azimuth
Elevation
Range (km)
Doppler Factor

Next 0 passes for location: London (51.5072 / 0.1276)

Sorry there are no passes over London.